Hourly Data Report for December 07, 2006

TORONTO CITY
ONTARIO

43°40'00.000" N
79°24'00.000" W
112.50 m
6158355
71508
XTO

Download Data

Hourly Data (December 2006)
Hourly Data Report for December 7, 2006
TIME
LST
Temp Definition
°C
Dew Point Definition
°C
Rel Hum Definition
%
Precip. Amount Definition
mm

Wind Dir Definition
10's deg

Wind Spd Definition
km/h
Visibility Definition
km
Stn Press Definition
kPa
Hmdx Definition


Wind Chill Definition


Weather Definition


00:00 2.1 0.9 92   LegendMM LegendMM   99.68     LegendNANA
01:00 1.7 -0.5 85   LegendMM LegendMM   99.71     LegendNANA
02:00 1.6 -0.3 87   LegendMM LegendMM   99.75     LegendNANA
03:00 0.8 -1.7 83   LegendMM LegendMM   99.82     LegendNANA
04:00 0.1 -2.2 84   LegendMM LegendMM   99.86     LegendNANA
05:00 -0.5 -3.8 78   LegendMM LegendMM   99.90     LegendNANA
06:00 -2.0 -5.5 77   LegendMM LegendMM   100.00     LegendNANA
07:00 -3.3 -7.0 76   LegendMM LegendMM   100.12     LegendNANA
08:00 -4.7 -9.2 71   LegendMM LegendMM   100.21     LegendNANA
09:00 -5.3 -9.4 73   LegendMM LegendMM   100.35     LegendNANA
10:00 -5.4 -10.4 68   LegendMM LegendMM   100.47     LegendNANA
11:00 -5.1 -12.5 56   LegendMM LegendMM   100.52     LegendNANA
12:00 -4.2 -13.0 50   LegendMM LegendMM   100.55     LegendNANA
13:00 -4.2 -14.2 46   LegendMM LegendMM   100.53     LegendNANA
14:00 -5.8 -16.2 44   LegendMM LegendMM   100.64     LegendNANA
15:00 -6.3 -16.1 46   LegendMM LegendMM   100.69     LegendNANA
16:00 -7.3 -16.2 49   LegendMM LegendMM   100.77     LegendNANA
17:00 -8.0 -15.3 56   LegendMM LegendMM   100.85     LegendNANA
18:00 -8.5 -15.2 58   LegendMM LegendMM   100.91     LegendNANA
19:00 -9.1 -15.9 58   LegendMM LegendMM   100.98     LegendNANA
20:00 -9.6 -14.6 67   LegendMM LegendMM   101.05     LegendNANA
21:00 -9.5 -12.4 79   LegendMM LegendMM   101.09     LegendNANA
22:00 -10.6 -17.0 59   LegendMM LegendMM   101.14     LegendNANA
23:00 -10.9 -16.3 64   LegendMM LegendMM   101.18     LegendNANA

Notes on Data Quality.

Legend

  • E = Estimated
  • M = Missing
  • NA = Not Available*
  • [empty] = Indicates an unobserved value
Date modified: